Zurück zum Katalog

STARLINK-36751

AktivKommunikationSSO
NORAD 67729·PAYLOAD·🇺🇸 United States

Gestartet Feb 11, 2026 von Vandenberg Space Force Base

Loading…

Nächste Überflüge (nächste 24 Stunden)

TLE

AktuellSource: CelesTrak SupGP

Epoche: Sep 14, 2026, 23:26 UTC

1 67729C 26026J   26257.97687500  .00022540  00000+0  69979-3 0  2573
2 67729  97.2845 309.8724 0001098  85.9398 255.0938 15.33423505    15

Verfolge STARLINK-36751 in Echtzeit mit AllMySat

Download on the App Store